Location: Tel Aviv
(32.0670°N, 34.7670°E)
Time: 09:29:36
(UTC+03:00)

Vanguard 1 Rocket - Pass Details

Date: 23 July 2025
Orbit: 656 x 4211 km, 34.3° (Epoch: 10 June)

Event Time Altitude Azimuth Distance (km) Brightness Sun altitude
Rises 23:19:07 0° 281° (W) 6,744 12.3 -33.9°
Reaches altitude 10° 23:24:24 10° 282° (WNW) 5,149 11.6 -34.4°
Enters shadow 23:37:24 88° 359° (N) 1,433 8.1 -35.4°
